Skip Page Navigation
NASA JPL Caltech
NASA Logo - Jet Propulsion Laboratory + View the NASA Portal
+ Center for Near-Earth Object Studies
JPL Home Earth Solar System Stars & Galaxies Technology
JPL Solar System Dynamics
BODIES ORBITS EPHEMERIDES TOOLS PHYSICAL DATA DISCOVERY FAQ SITE MAP
JPL Small-Body Database Browser
Search: [ help ]  
19013 (2000 RN76)
Classification: Main-belt Asteroid          SPK-ID: 2019013
Ephemeris | Orbit Diagram | Orbital Elements | Mission Design | Physical Parameters | Discovery Circumstances ]

[ show orbit diagram ]
Orbital Elements at Epoch 2459200.5 (2020-Dec-17.0) TDB
Reference: JPL 36 (heliocentric ecliptic J2000)
 Element Value Uncertainty (1-sigma)   Units 
e .1868535499415503 2.5495e-08  
a 2.562708102713035 8.7628e-09 au
q 2.083856996257129 6.7182e-08 au
i 6.817896289990419 1.5006e-06 deg
node 9.245697065793156 9.8813e-06 deg
peri 278.0205824214077 1.078e-05 deg
M 41.79374603363481 5.3192e-06 deg
tp 2459026.537380533950
(2020-Jun-26.03738053)
2.2194e-05 TDB
period 1498.466850934524
4.10
7.6857e-06
2.104e-08
d
yr
n .2402455548319168 1.2322e-09 deg/d
Q 3.041559209168941 1.04e-08 au
  Orbit Determination Parameters
   # obs. used (total)      2140  
   data-arc span      10345 days (28.32 yr)  
   first obs. used      1992-09-23  
   last obs. used      2021-01-19  
   planetary ephem.      DE441  
   SB-pert. ephem.      SB441-N16  
   condition code      0  
   norm. resid. RMS      .48943  
   source      ORB  
   producer      Otto Matic  
   solution date      2021-Apr-13 02:44:16  

Additional Information
 Earth MOID = 1.07926 au 
 Jupiter MOID = 2.17767 au 
 T_jup = 3.400 
[ show covariance matrix ]

Ephemeris | Orbit Diagram | Orbital Elements | Mission Design | Physical Parameters | Discovery Circumstances ]

Physical Parameter Table
Parameter Symbol Value Units Sigma Reference Notes
absolute magnitude H 13.66   n/a E2021B10  
diameter diameter 4.831 km 0.503 urn:nasa:pds:neowise_diameters_albedos::2.0[mainbelt] (http://adsabs.harvard.edu/abs/2011ApJ...741...68M)  
geometric albedo albedo 0.301   0.126 urn:nasa:pds:neowise_diameters_albedos::2.0[mainbelt] (http://adsabs.harvard.edu/abs/2011ApJ...741...68M)  

19013 (2000 RN76)          Discovered 2000-Sep-04 by LINEAR at Socorro
Reference: 20001111/Numbers.arcLast Updated: 2004-04-19

Alternate Designations
 2000 RN76 = 1992 SS23 = 1999 JY75 
Ephemeris | Orbit Diagram | Orbital Elements | Mission Design | Physical Parameters | Discovery Circumstances ]
ABOUT SSD CREDITS/AWARDS PRIVACY/COPYRIGHT GLOSSARY LINKS
FirstGov 2021-Apr-18 13:06 UT
(server date/time)  
NASA Home Page
Site Manager:   Ryan S. Park
Webmaster  Alan B. Chamberlin